Location: Prague
(50.0830°N, 14.4670°E)
Time: 20:11:22
(UTC+02:00)

X-37B - Visible Passes

Search period start: 26 September 2021 00:00
Search period end: 06 October 2021 00:00
Orbit: 381 x 393 km, 45.0° (Epoch: 29 August)

Date Brightness Start Highest point End Pass type
(mag) Time Alt. Az. Time Alt. Az. Time Alt. Az.
26 Sep 2.7 04:44:46 19° SE 04:44:46 19° SE 04:46:33 10° ESE visible
26 Sep 1.8 06:17:23 10° WSW 06:20:16 32° S 06:23:09 10° ESE visible
27 Sep 1.7 05:21:20 27° SSW 05:22:01 30° S 05:24:51 10° ESE visible
28 Sep 3.2 04:25:37 16° ESE 04:25:37 16° ESE 04:26:29 10° ESE visible
28 Sep 1.7 05:57:54 15° WSW 06:00:00 31° S 06:02:51 10° ESE visible
29 Sep 1.8 05:02:12 30° SSE 05:02:12 30° SSE 05:04:36 10° ESE visible
30 Sep 1.8 05:38:49 23° SW 05:39:42 27° S 05:42:27 10° SE visible
01 Oct 2.9 04:43:12 18° SE 04:43:12 18° SE 04:44:18 10° ESE visible
01 Oct 2.6 06:15:30 10° WSW 06:17:33 17° SSW 06:19:40 10° SSE visible
02 Oct 2.3 05:19:58 21° S 05:19:58 21° S 05:21:55 10° SE visible
03 Oct 2.9 05:56:49 11° SW 05:57:09 11° SSW 05:58:17 10° S visible
